The Dalles, WA

4:47 PM PDT on July 27, 2017 (GMT -0700)
Columbia Gorge Regional-The Dalles

Weather History for KDLS - February, 2013

Change the Weather History Date:

Wednesday, February 27, 2013

  Actual Average Record
Temperature  
Mean Temperature 42 °F -  
Max Temperature 53 °F 52 °F 66 °F (1968)
Min Temperature 30 °F 32 °F 11 °F (1960)
Degree Days  
Heating Degree Days 24    
Moisture  
Dew Point 34 °F    
Average Humidity 74    
Maximum Humidity 89    
Minimum Humidity 50    
Precipitation  
Precipitation 0.00 in - - ()
Sea Level Pressure  
Sea Level Pressure 30.29 in    
Wind  
Wind Speed 3 mph (NNW)    
Max Wind Speed 9 mph    
Max Gust Speed -    
Visibility 10 miles    
Events      
Averages and records for this station are not official NWS values.
T = Trace of Precipitation, MM = Missing Value Source: NWS Daily Summary

Daily Weather History Graph

Daily Weather History Graph

Search for Another Location

Airport or City:

Trip Planner

Search our weather history database for the weather conditions in past years. The results will help you decide how hot, cold, wet, or windy it might be!

Date:

Astronomy

Feb. 27, 2013 Rise Set
Actual Time 6:46 AM PST 5:49 PM PST
Civil Twilight 6:16 AM PST 6:19 PM PST
Nautical Twilight 5:41 AM PST 6:53 PM PST
Astronomical Twilight 5:07 AM PST 7:27 PM PST
Moon 8:26 PM PST 7:15 AM PST
Length of Visible Light 12h 02m
Length of Day
11h 03m
Waning Gibbous, 96% of the Moon is Illuminated
Feb 27
Waning Gibbous
Mar 4
Last Quarter
Mar 11
New
Mar 19
First Quarter
Mar 27
Full

Hourly Weather History & Observations

Time (PST) Temp. Windchill Dew Point Humidity Pressure Visibility Wind Dir Wind Speed Gust Speed Precip Events Conditions
12:53 AM 34.0 °F - 30.0 °F 85% 30.28 in 10.0 mi Calm Calm - N/A   Clear
1:53 AM 33.1 °F 25.5 °F 28.9 °F 85% 30.28 in 10.0 mi ESE 9.2 mph - N/A   Clear
2:53 AM 30.9 °F - 28.0 °F 89% 30.29 in 10.0 mi Calm Calm - N/A   Scattered Clouds
3:53 AM 30.9 °F 27.5 °F 27.0 °F 85% 30.29 in 10.0 mi ESE 3.5 mph - N/A   Scattered Clouds
4:53 AM 30.0 °F - 27.0 °F 88% 30.30 in 10.0 mi Calm Calm - N/A   Partly Cloudy
5:53 AM 30.9 °F 25.2 °F 28.0 °F 89% 30.30 in 10.0 mi South 5.8 mph - N/A   Clear
6:53 AM 30.0 °F 25.2 °F 26.1 °F 85% 30.32 in 10.0 mi ESE 4.6 mph - N/A   Clear
7:53 AM 30.9 °F - 28.0 °F 89% 30.34 in 10.0 mi Calm Calm - N/A   Clear
8:53 AM 34.0 °F - 30.0 °F 85% 30.35 in 10.0 mi Calm Calm - N/A   Clear
9:53 AM 37.0 °F - 32.0 °F 82% 30.35 in 10.0 mi Calm Calm - N/A   Clear
10:53 AM 41.0 °F - 32.0 °F 70% 30.33 in 10.0 mi Calm Calm - N/A   Clear
11:53 AM 48.0 °F - 34.0 °F 58% 30.31 in 10.0 mi Calm Calm - N/A   Clear
12:53 PM 50.0 °F - 35.1 °F 57% 30.30 in 10.0 mi West 3.5 mph - N/A   Scattered Clouds
1:53 PM 52.0 °F - 35.1 °F 53% 30.28 in 10.0 mi Calm Calm - N/A   Mostly Cloudy
2:53 PM 53.1 °F - 35.1 °F 50% 30.27 in 10.0 mi Calm Calm - N/A   Mostly Cloudy
3:53 PM 53.1 °F - 36.0 °F 52% 30.26 in 10.0 mi NNW 6.9 mph - N/A   Overcast
4:53 PM 52.0 °F - 37.9 °F 59% 30.26 in 10.0 mi NW 4.6 mph - N/A   Overcast
5:53 PM 50.0 °F - 37.9 °F 63% 30.26 in 10.0 mi NNW 3.5 mph - N/A   Overcast
6:53 PM 48.9 °F - 39.0 °F 69% 30.27 in 10.0 mi NW 4.6 mph - N/A   Overcast
7:53 PM 48.9 °F - 39.9 °F 71% 30.25 in 10.0 mi NW 4.6 mph - N/A   Overcast
8:53 PM 48.0 °F - 39.9 °F 74% 30.26 in 10.0 mi NW 5.8 mph - N/A   Overcast
9:53 PM 46.9 °F - 41.0 °F 80% 30.27 in 10.0 mi NNW 8.1 mph - 0.00 in   Overcast
10:53 PM 46.0 °F - 41.0 °F 83% 30.27 in 10.0 mi Calm Calm - N/A   Overcast
11:53 PM 46.0 °F - 41.0 °F 83% 30.26 in 10.0 mi Calm Calm - N/A   Overcast